Flag for U.S.A. Weather past 2 weeks in Victorville, California, U.S.A.

Now
52 °F

Light rain. Broken clouds.


Feels Like: 52 °F
Forecast: 45 / 56 °F
Wind: No wind

Location: George Air Force Base / Victorvi

Current Time: Jan 30, 2015 at 3:47:41 PM

Latest Report: Jan 30, 2015 at 3:15 PM


Visibility: 10 mi

Pressure: 29.89 "Hg

Humidity: 77%

Dew point: 45 °F

Location of VictorvilleLocation

Historic Weather in Victorville — Graph

°F

Victorville temperature yesterday

Maximum temperature yesterday: 63 °F (at 12:55 PM)
Minimum temperature yesterday: 46 °F (at 12:15 AM)
Average temperature yesterday: 53 °F

Past Weeks' High & Low Weather Summary

 TemperatureHumidityPressure
High70 °F (Jan 25, 1:15 PM)100% (Jan 27, 1:15 AM)30.37 "Hg (Jan 27, 1:15 AM)
Low30 °F (Jan 23, 4:15 AM)12% (Jan 23, 1:15 PM)29.88 "Hg (Jan 30, 2:15 PM)
Average49 °F57%30.20 "Hg
* Reported Jan 15 2:15 PM — Jan 30 2:15 PM, Victorville, Weather by CustomWeather, © 2014

Note: Actual official high and low records may vary slightly from our data, if they occured in-between our weather recording intervals... More about our weather records

Advertising

Victorville weather history for previous 24 hours

 ConditionsComfort  
Time TempWeatherWind HumidityBarometerVisibility
2:15 PM
Jan 30
55 °FDrizzle. More clouds than sun.No wind67%29.88 "Hg7 mi
1:15 PM55 °FScattered clouds.3 mph67%29.89 "Hg10 mi
12:55 PM55 °FScattered clouds.No wind67%29.91 "Hg10 mi
12:35 PM55 °FBroken clouds.5 mph67%29.92 "Hg10 mi
12:15 PM55 °FLight rain. Cloudy.6 mph67%29.92 "Hg10 mi
11:55 AM55 °FCloudy.5 mph67%29.94 "Hg10 mi
11:35 AM55 °FBroken clouds.No wind63%29.95 "Hg10 mi
11:15 AM55 °FPartly sunny.No wind63%29.95 "Hg10 mi
10:55 AM55 °FMostly cloudy.No wind67%29.96 "Hg10 mi
10:35 AM54 °FOvercast.No wind72%29.97 "Hg10 mi
10:15 AM52 °FOvercast.No wind82%29.98 "Hg10 mi
9:55 AM52 °FOvercast.No wind82%29.98 "Hg10 mi
9:35 AM52 °FOvercast.No wind82%29.98 "Hg10 mi
9:15 AM50 °FMostly cloudy.No wind88%29.98 "Hg10 mi
8:55 AM50 °FMore clouds than sun.No wind88%29.98 "Hg10 mi
8:35 AM50 °FOvercast.3 mph88%29.98 "Hg10 mi
8:15 AM48 °FPartly sunny.No wind94%29.99 "Hg10 mi
7:55 AM48 °FDrizzle. Partly sunny.No wind94%29.99 "Hg10 mi
7:35 AM48 °FDrizzle. Partly sunny.No wind94%29.99 "Hg10 mi
7:15 AM48 °FOvercast.No wind94%30.00 "Hg10 mi
6:55 AM48 °FMostly cloudy.No wind94%30.00 "Hg10 mi
6:35 AM48 °FOvercast.5 mph94%30.00 "Hg10 mi
6:15 AM48 °FMostly cloudy.5 mph94%30.00 "Hg10 mi
5:55 AM48 °FMostly cloudy.6 mph87%30.00 "Hg10 mi
5:35 AM48 °FMostly cloudy.3 mph87%30.00 "Hg10 mi
5:15 AM48 °FMostly cloudy.3 mph87%30.00 "Hg10 mi
4:55 AM48 °FOvercast.5 mph87%30.00 "Hg10 mi
4:35 AM48 °FMostly cloudy.5 mph87%30.00 "Hg10 mi
4:15 AM48 °FOvercast.No wind87%30.01 "Hg10 mi
3:55 AM50 °FMostly cloudy.5 mph82%30.01 "Hg10 mi
3:35 AM48 °FMostly cloudy.No wind87%30.02 "Hg10 mi
3:15 AM48 °FOvercast.No wind87%30.03 "Hg10 mi
2:55 AM48 °FOvercast.3 mph87%30.03 "Hg10 mi
2:15 AM48 °FDrizzle. Mostly cloudy.5 mph87%30.04 "Hg10 mi
1:55 AM50 °FDrizzle. Overcast.No wind76%30.04 "Hg10 mi
1:15 AM50 °FOvercast.No wind76%30.05 "Hg10 mi
12:55 AM50 °FDrizzle. Overcast.No wind76%30.06 "Hg10 mi
12:35 AM50 °FDrizzle. Mostly cloudy.No wind82%30.06 "Hg10 mi
12:15 AM52 °FLight rain. Overcast.No wind72%30.06 "Hg10 mi
11:55 PM
Jan 29
52 °FDrizzle. Overcast.No wind67%30.08 "Hg10 mi
11:35 PM54 °FMostly cloudy.5 mph58%30.08 "Hg10 mi
11:15 PM54 °FMostly cloudy.6 mph63%30.08 "Hg10 mi
10:55 PM54 °FOvercast.8 mph58%30.08 "Hg10 mi
10:35 PM54 °FDrizzle. Overcast.6 mph63%30.08 "Hg10 mi
10:15 PM54 °FDrizzle. Overcast.9 mph58%30.08 "Hg10 mi
9:55 PM54 °FDrizzle. Overcast.10 mph63%30.08 "Hg10 mi
9:35 PM54 °FOvercast.10 mph58%30.09 "Hg10 mi
9:15 PM55 °FOvercast.14 mph51%30.09 "Hg10 mi
8:55 PM55 °FMostly cloudy.12 mph51%30.09 "Hg10 mi
8:15 PM55 °FOvercast.5 mph59%30.08 "Hg10 mi
7:15 PM57 °FOvercast.5 mph51%30.09 "Hg10 mi
6:55 PM57 °FMostly cloudy.5 mph51%30.09 "Hg10 mi
6:35 PM57 °FPassing clouds.No wind51%30.08 "Hg10 mi
6:15 PM57 °FPassing clouds.5 mph51%30.08 "Hg10 mi
5:55 PM57 °FClear.5 mph51%30.08 "Hg10 mi
5:35 PM57 °FClear.5 mph51%30.08 "Hg10 mi
5:15 PM59 °FSunny.6 mph48%30.07 "Hg10 mi
4:55 PM59 °FSunny.6 mph45%30.08 "Hg10 mi
4:35 PM61 °FSunny.5 mph42%30.08 "Hg10 mi
4:15 PM61 °FSunny.5 mph39%30.08 "Hg10 mi
3:55 PM61 °FScattered clouds.7 mph42%30.08 "Hg10 mi
3:35 PM61 °FScattered clouds.8 mph39%30.08 "Hg10 mi
3:15 PM61 °FScattered clouds.6 mph42%30.08 "Hg10 mi
Weather by CustomWeather, © 2014

See weather overviewHow to use our weather pages